DECAYED

STARLINK-1295, 45373 (Decayed)

Orbit data source: Space-Track

STARLINK-1295, 45373 was a payload satellite owned by SpaceX/Seattle (US) in LEO that was launched on Wed, 18 Mar 2020 UTC via an FALCON 9 launch vehicle from the Air Force Eastern Test Range (AFETR). Payload-class satellites include a variety of spacecraft equipped with specific instruments for various scientific and technological missions. These include communications satellites like Starlink; space stations such as the ISS; scientific satellites like the Hubble; Earth observation satellites from companies like Planet Labs, Umbra, and HawkEye 360; GPS; miniature CubeSats for education and research; and military/defense satellites.

Not visible in the next 10 days
Identifier
45373, 2020-019P
Orbit
Decayed
Country
Flag of USUS
Related business
Manufacturer
SpaceX/Seattle
Mission
Decayed Commercial Communications
Bus & Motor
STARLINK, Unknown motor
Mass
260 kg wet, ~248 kg dry
Launch date (UTC)
2020-03-18 (6 years ago)
Launch vehicle
FALCON 9
Launch site
Air Force Eastern Test Range (AFETR)
Object type
Payload
Rocket body
Debris
Shape & HBR
Box + 1 Pan, 10.1 m
Radar Cross Section
13.562 m², Large (>1 m²)

Expand to show TLE details & history
Last TLE update: 1 year ago

TLE from 1 year ago
0 STARLINK-1295
1 45373U 20019P   25109.61359108  .07801254  12440-4  50121-3 0  9998
2 45373  53.0336 133.4396 0004960 307.5897 147.2283 16.40992213281556
Epoch: 2025-04-19T14:43Z
TLE epoch observation values (Epoch: 2025-04-19T14:43:34.269Z)
Latitude
52.92048°
Longitude
162.63132°
Altitude
172.31 km
Speed
7.808 km/s
True Right ascension
15h 25m 54s
True Declination
52° 44' 24"
Sunlit
Object was in full shadow at epoch
Visualization orbit readout
Latitude
Unknown
Longitude
Unknown
Altitude
Unknown
Speed
Unknown
Apparent Right ascension
Unknown
Apparent Declination
Unknown
Sunlit
N/A
Visualization observer readout
Local Sidereal Time
16:37:10
Azimuth
Unknown
Elevation
Unknown
Doppler factor
Unknown
Orbital elements
Apogee altitude
166.699 km
Perigee altitude
160.209 km
Semi-major axis
6,541.591 km
Eccentricity
0.0005
Inclination
53.0336°
RAAN
133.4396°
Arg. of periapsis
307.5897°
True anomaly
147.25905°
Mean anomaly
147.2283°
Eccentric anomaly
147.24368°
Mean motion
4.10221 °/min
Orbital period
87.76 mins
BSTAR
0.00050121
Loading maneuver chart data...
Computing Atmospheric mass density...

Documentation

Showing up to 5 results
|